W1ERB-13 Weather Reports


time (UTC)temp
C
wind
direction
speed
KPH
gust
KPH
rain 1hr
cm
rain 24hr
cm
rain mn
cm
humidity
%
barometer
mb
20260506193021 15 215 3.2 3.2 0.00 0.25 0.25 96 1006.9
20260506192518 14 224 3.2 4.8 0.00 0.25 0.25 96 1006.8
20260506192013 14 269 4.8 8.0 0.00 0.25 0.25 96 1007.1
20260506191511 15 204 1.6 3.2 0.00 0.25 0.25 96 1007.3
20260506191007 14 224 4.8 8.0 0.00 0.25 0.25 96 1007.2
20260506190504 15 281 3.2 4.8 0.00 0.25 0.25 96 1007.4
20260506190000 15 169 1.6 3.2 0.00 0.25 0.25 96 1007.4
20260506185457 15 270 4.8 8.0 0.00 0.25 0.25 96 1007.3
20260506184954 14 140 9.7 12.9 0.00 0.25 0.25 96 1007.5
20260506184452 15 237 1.6 3.2 0.13 0.25 0.25 96 1007.4
20260506183948 14 184 3.2 3.2 0.13 0.25 0.25 96 1007.4
20260506183444 15 255 4.8 4.8 0.18 0.23 0.23 96 1007.9
20260506182941 15 222 1.6 3.2 0.30 0.23 0.23 95 1008.0
20260506182439 15 215 3.2 3.2 0.30 0.20 0.20 95 1007.9
20260506181936 15 215 3.2 4.8 0.18 0.18 0.18 95 1007.7
20260506181433 15 223 1.6 1.6 0.00 0.15 0.15 94 1007.9
20260506180930 15 209 3.2 3.2 0.18 0.15 0.15 94 1007.9
20260506180426 15 216 3.2 4.8 0.18 0.15 0.15 94 1007.5
20260506175918 15 222 4.8 8.0 0.00 0.13 0.13 94 1007.5
20260506175414 15 178 1.6 3.2 0.13 0.13 0.13 94 1007.6
20260506174911 15 132 3.2 4.8 0.13 0.13 0.13 94 1007.8
20260506174409 15 190 1.6 1.6 0.00 0.10 0.10 93 1007.7
20260506173906 15 170 11.3 14.5 0.18 0.10 0.10 93 1008.1
20260506173403 15 161 4.8 8.0 0.18 0.10 0.10 93 1008.2
20260506172859 15 123 1.6 1.6 0.00 0.08 0.08 93 1008.2
20260506172356 15 217 1.6 1.6 0.13 0.08 0.08 92 1008.4
20260506171854 15 243 4.8 4.8 0.13 0.08 0.08 92 1008.5
20260506171350 15 213 3.2 3.2 0.00 0.05 0.05 92 1008.6
20260506170848 15 228 4.8 12.9 0.18 0.05 0.05 91 1008.7
20260506170344 15 223 3.2 3.2 0.18 0.05 0.05 90 1008.7
20260506165844 15 210 6.4 9.7 0.30 0.05 0.05 89 1008.8
20260506165341 16 210 4.8 8.0 0.13 0.03 0.03 87 1008.8
20260506164837 16 241 4.8 4.8 0.00 0.00 0.00 84 1009.0
20260506164334 16 217 3.2 3.2 0.00 0.00 0.00 83 1009.0
20260506163832 17 143 1.6 1.6 0.00 0.00 0.00 80 1008.9
20260506163326 17 230 4.8 8.0 0.00 0.00 0.00 78 1008.7
20260506162821 17 211 4.8 8.0 0.00 0.00 0.00 77 1008.6
20260506162319 17 261 3.2 4.8 0.00 0.00 0.00 77 1008.8
20260506161817 18 219 6.4 11.3 0.00 0.00 0.00 76 1008.7
20260506161314 17 259 4.8 4.8 0.00 0.00 0.00 76 1008.8
20260506160812 17 223 4.8 8.0 0.00 0.00 0.00 76 1008.9
20260506160308 18 222 1.6 3.2 0.00 0.00 0.00 75 1009.0
20260506155807 18 200 8.0 11.3 0.00 0.00 0.00 76 1009.3
20260506155306 17 132 4.8 4.8 0.00 0.00 0.00 76 1009.0
20260506153415 17 232 3.2 3.2 0.00 0.00 0.00 76 1009.2
20260506152913 18 221 0.0 0.0 0.00 0.00 0.00 75 1009.2
20260506152410 18 221 3.2 4.8 0.00 0.00 0.00 75 1009.1
20260506151908 18 222 1.6 1.6 0.00 0.00 0.00 75 1009.0
20260506151405 18 220 1.6 3.2 0.00 0.00 0.00 75 1009.0
20260506150902 18 183 3.2 4.8 0.00 0.00 0.00 74 1009.1
20260506150358 18 31 6.4 9.7 0.00 0.00 0.00 73 1009.0
20260506145855 18 222 4.8 8.0 0.00 0.00 0.00 73 1009.0
20260506145351 18 327 9.7 16.1 0.00 0.00 0.00 74 1009.0
20260506144849 18 260 4.8 4.8 0.00 0.00 0.00 73 1008.9
20260506144345 18 192 9.7 16.1 0.00 0.00 0.00 73 1009.0
20260506143844 18 271 8.0 11.3 0.00 0.00 0.00 72 1009.2
20260506143341 18 75 4.8 4.8 0.00 0.00 0.00 73 1009.3
20260506142839 19 262 3.2 4.8 0.00 0.00 0.00 73 1009.4
20260506142337 19 210 8.0 11.3 0.00 0.00 0.00 71 1009.4
20260506141835 19 225 4.8 8.0 0.00 0.00 0.00 72 1009.1
20260506141332 18 257 3.2 3.2 0.00 0.00 0.00 72 1009.3
20260506140830 18 217 1.6 3.2 0.00 0.00 0.00 73 1009.3
20260506140327 18 230 6.4 9.7 0.00 0.00 0.00 73 1009.5
20260506135824 18 219 3.2 4.8 0.00 0.00 0.00 75 1009.6
20260506135320 18 203 1.6 1.6 0.00 0.00 0.00 74 1009.5
20260506134817 18 258 6.4 9.7 0.00 0.00 0.00 75 1009.3
20260506134313 17 164 6.4 9.7 0.00 0.00 0.00 76 1009.2
20260506133810 18 79 3.2 4.8 0.00 0.00 0.00 76 1009.1
20260506133307 18 231 4.8 4.8 0.00 0.00 0.00 76 1009.0
20260506132804 17 236 3.2 4.8 0.00 0.00 0.00 77 1009.4
20260506132301 17 292 4.8 9.7 0.00 0.00 0.00 78 1009.3
20260506131759 17 207 6.4 9.7 0.00 0.00 0.00 79 1009.3
20260506131255 17 198 4.8 4.8 0.00 0.00 0.00 79 1009.4
20260506130752 17 207 3.2 3.2 0.00 0.00 0.00 79 1009.3
20260506130249 17 224 3.2 3.2 0.00 0.00 0.00 79 1009.4
20260506125746 16 205 4.8 4.8 0.00 0.00 0.00 80 1009.2
20260506125244 16 254 4.8 4.8 0.00 0.00 0.00 80 1009.6
20260506124743 16 221 8.0 11.3 0.00 0.00 0.00 80 1009.6
20260506124240 16 191 4.8 8.0 0.00 0.00 0.00 81 1009.8
20260506123737 16 181 4.8 4.8 0.00 0.00 0.00 82 1009.9
20260506123236 16 217 6.4 11.3 0.00 0.00 0.00 82 1010.1
20260506122732 16 160 6.4 9.7 0.00 0.00 0.00 82 1010.1
20260506122229 16 270 3.2 4.8 0.00 0.00 0.00 83 1009.7
20260506121728 15 231 1.6 1.6 0.00 0.00 0.00 84 1009.9
20260506121224 15 234 3.2 3.2 0.00 0.00 0.00 84 1009.8
20260506120722 16 157 4.8 4.8 0.00 0.00 0.00 83 1009.8
20260506120219 15 230 6.4 9.7 0.00 0.00 0.00 84 1010.0
20260506115717 15 214 6.4 11.3 0.00 0.00 0.00 85 1009.9
20260506115215 15 247 1.6 1.6 0.00 0.00 0.00 87 1009.9
20260506114712 15 197 3.2 4.8 0.00 0.00 0.00 87 1009.7
20260506114210 15 219 4.8 4.8 0.00 0.00 0.00 86 1009.8
20260506113708 15 222 3.2 4.8 0.00 0.00 0.00 86 1009.7
20260506113205 15 220 3.2 4.8 0.00 0.00 0.00 87 1009.7
20260506112701 14 246 3.2 4.8 0.00 0.00 0.00 88 1009.7
20260506112159 15 215 1.6 3.2 0.00 0.00 0.00 87 1009.7
20260506111656 15 188 1.6 3.2 0.00 0.00 0.00 87 1009.9
20260506111154 15 234 4.8 4.8 0.00 0.00 0.00 87 1010.2
20260506110651 15 226 1.6 1.6 0.00 0.00 0.00 87 1010.1
20260506110149 14 125 3.2 4.8 0.00 0.00 0.00 88 1010.0
20260506105645 14 202 1.6 3.2 0.00 0.00 0.00 88 1009.9
20260506105142 14 215 6.4 8.0 0.00 0.00 0.00 88 1010.1
20260506104640 14 220 6.4 8.0 0.00 0.00 0.00 88 1009.8
20260506104137 14 223 1.6 1.6 0.00 0.00 0.00 88 1009.9
20260506103635 14 186 3.2 4.8 0.00 0.00 0.00 88 1009.9
20260506103131 13 266 4.8 4.8 0.00 0.00 0.00 89 1009.9
20260506102630 13 227 3.2 4.8 0.00 0.00 0.00 89 1009.7
20260506102126 13 199 6.4 8.0 0.00 0.00 0.00 90 1009.7
20260506101623 13 221 1.6 3.2 0.00 0.00 0.00 90 1009.8
20260506101120 13 140 4.8 8.0 0.00 0.00 0.00 90 1009.9
20260506100619 13 219 4.8 4.8 0.00 0.00 0.00 90 1009.7
20260506100116 13 209 6.4 9.7 0.00 0.00 0.00 90 1009.7
20260506095615 13 230 4.8 4.8 0.00 0.00 0.00 90 1009.5
20260506095111 13 209 3.2 3.2 0.00 0.00 0.00 89 1009.7
20260506094608 13 221 4.8 4.8 0.00 0.00 0.00 89 1009.9
20260506094106 13 229 3.2 3.2 0.00 0.00 0.00 89 1009.7
20260506093604 13 220 1.6 3.2 0.00 0.00 0.00 89 1009.5
20260506093101 13 150 8.0 16.1 0.00 0.00 0.00 89 1009.6
20260506092559 13 226 4.8 4.8 0.00 0.00 0.00 89 1009.6
20260506092056 13 257 3.2 3.2 0.00 0.00 0.00 88 1009.8
20260506091554 13 226 3.2 3.2 0.00 0.00 0.00 88 1009.9
20260506091051 13 126 4.8 4.8 0.00 0.00 0.00 88 1009.7
20260506090549 13 259 3.2 4.8 0.00 0.00 0.00 88 1009.5
20260506090045 13 242 3.2 3.2 0.00 0.00 0.00 88 1009.9
20260506085542 13 248 4.8 4.8 0.00 0.00 0.00 88 1009.7
20260506085038 13 214 3.2 3.2 0.00 0.00 0.00 87 1009.6
20260506084535 13 223 8.0 11.3 0.00 0.00 0.00 87 1009.9
20260506084031 13 157 4.8 8.0 0.00 0.00 0.00 87 1009.8
20260506083529 13 213 4.8 4.8 0.00 0.00 0.00 87 1009.8
20260506083026 14 239 6.4 8.0 0.00 0.00 0.00 87 1009.7
20260506082523 14 210 6.4 9.7 0.00 0.00 0.00 87 1009.8
20260506082018 14 228 3.2 4.8 0.00 0.00 0.00 86 1009.6
20260506081517 14 124 6.4 12.9 0.00 0.00 0.00 86 1009.5
20260506081014 14 221 4.8 9.7 0.00 0.00 0.00 86 1009.6
20260506080511 14 244 4.8 4.8 0.00 0.00 0.00 86 1009.7
20260506073455 14 233 4.8 8.0 0.00 0.00 0.00 85 1009.7
20260506072952 14 149 4.8 4.8 0.00 0.00 0.00 85 1009.7
20260506072449 14 198 4.8 4.8 0.00 0.00 0.00 85 1009.7
20260506071947 14 240 6.4 8.0 0.00 0.00 0.00 84 1009.8
20260506071445 15 227 1.6 1.6 0.00 0.00 0.00 84 1009.7
20260506070941 15 273 9.7 12.9 0.00 0.00 0.00 84 1009.6
20260506070438 15 211 8.0 9.7 0.00 0.00 0.00 84 1009.8
20260506062416 15 228 8.0 9.7 0.00 0.00 0.00 82 1009.6
20260506061912 15 52 8.0 12.9 0.00 0.00 0.00 82 1009.7
20260506061408 15 235 4.8 4.8 0.00 0.00 0.00 82 1009.9
20260506060906 15 229 4.8 8.0 0.00 0.00 0.00 81 1009.5
20260506060404 15 231 6.4 9.7 0.00 0.00 0.00 81 1009.7
20260506051336 15 223 4.8 8.0 0.00 0.00 0.00 79 1010.0
20260506050833 16 227 6.4 12.9 0.00 0.00 0.00 79 1010.1
20260506050331 16 258 4.8 4.8 0.00 0.00 0.00 79 1010.0
20260506044821 16 247 4.8 8.0 0.00 0.00 0.00 78 1010.0
20260506044319 16 262 4.8 8.0 0.00 0.00 0.00 78 1010.2
20260506043816 16 263 3.2 4.8 0.00 0.00 0.00 78 1010.1
20260506043313 16 273 4.8 8.0 0.00 0.00 0.00 77 1010.2
20260506042812 16 206 6.4 8.0 0.00 0.00 0.00 77 1010.3
20260506042310 16 222 4.8 9.7 0.00 0.00 0.00 76 1010.0
20260506041809 16 237 4.8 4.8 0.00 0.00 0.00 77 1010.2
20260506041305 16 168 6.4 11.3 0.00 0.00 0.00 76 1010.3
20260506040802 16 230 6.4 9.7 0.00 0.00 0.00 76 1010.3
20260506040259 16 251 4.8 8.0 0.00 0.00 0.00 75 1010.0
20260506035756 16 146 4.8 8.0 0.00 0.00 0.00 75 1010.1
20260506035253 16 225 6.4 8.0 0.00 0.00 0.00 75 1010.1
20260506034750 16 257 4.8 8.0 0.00 0.00 0.00 74 1010.2
20260506034248 16 218 6.4 9.7 0.00 0.00 0.00 74 1010.1
20260506033744 16 221 3.2 3.2 0.00 0.00 0.00 73 1010.1
20260506033241 16 237 4.8 8.0 0.00 0.00 0.00 72 1010.3
20260506032738 17 185 6.4 9.7 0.00 0.00 0.00 72 1010.1
20260506032235 16 224 3.2 3.2 0.00 0.00 0.00 71 1010.0
20260506031732 16 224 8.0 9.7 0.00 0.00 0.00 71 1009.9
20260506031229 17 242 4.8 4.8 0.00 0.00 0.00 71 1010.0
20260506030728 17 88 4.8 8.0 0.00 0.00 0.00 70 1010.1
20260506030225 17 243 6.4 9.7 0.00 0.00 0.00 70 1009.9
20260506025721 17 218 6.4 11.3 0.00 0.00 0.00 70 1010.0
20260506025218 17 270 6.4 9.7 0.00 0.00 0.00 69 1010.1
20260506024715 17 221 3.2 4.8 0.00 0.00 0.00 69 1009.9
20260506024211 17 277 3.2 8.0 0.00 0.00 0.00 69 1009.8
20260506023708 17 199 8.0 12.9 0.00 0.00 0.00 69 1009.9
20260506023205 17 232 4.8 8.0 0.00 0.00 0.00 69 1009.7
20260506022702 17 241 8.0 11.3 0.00 0.00 0.00 69 1009.7
20260506022159 17 209 8.0 9.7 0.00 0.00 0.00 69 1009.9
20260506021657 17 243 6.4 9.7 0.00 0.00 0.00 69 1009.6
20260506021154 17 227 4.8 4.8 0.00 0.00 0.00 69 1009.9
20260506020651 17 331 8.0 12.9 0.00 0.00 0.00 70 1009.8
20260506020149 17 191 6.4 11.3 0.00 0.00 0.00 69 1009.8
20260506015646 17 244 4.8 8.0 0.00 0.00 0.00 69 1009.8
20260506015143 17 235 8.0 11.3 0.00 0.00 0.00 69 1009.9
20260506014635 17 113 6.4 11.3 0.00 0.00 0.00 68 1009.7
20260506014131 17 197 6.4 9.7 0.00 0.00 0.00 68 1009.5
20260506013629 17 262 6.4 9.7 0.00 0.00 0.00 68 1009.7
20260506013126 17 182 6.4 9.7 0.00 0.00 0.00 68 1009.4
20260506012621 17 223 8.0 11.3 0.00 0.00 0.00 68 1009.5
20260506012118 17 271 8.0 11.3 0.00 0.00 0.00 67 1009.6
20260506011616 17 204 6.4 8.0 0.00 0.00 0.00 67 1009.5
20260506011111 17 235 8.0 16.1 0.00 0.00 0.00 67 1009.5
20260506010605 17 207 8.0 11.3 0.00 0.00 0.00 66 1009.3
20260506005559 17 239 6.4 9.7 0.00 0.00 0.00 66 1009.3
20260506005055 17 201 3.2 4.8 0.00 0.00 0.00 66 1009.2
20260506004547 17 130 6.4 11.3 0.00 0.00 0.00 65 1009.2
20260506004043 17 217 6.4 9.7 0.00 0.00 0.00 64 1009.0
20260506003540 17 232 4.8 9.7 0.00 0.00 0.00 65 1009.0
20260506003036 17 220 8.0 11.3 0.00 0.00 0.00 64 1008.8
20260506002532 17 230 4.8 8.0 0.00 0.00 0.00 64 1008.8
20260506002028 17 262 9.7 12.9 0.00 0.00 0.00 64 1008.6
20260506001524 17 194 11.3 16.1 0.00 0.00 0.00 63 1008.5
20260506001021 18 226 3.2 4.8 0.00 0.00 0.00 63 1008.7
20260506000519 18 195 6.4 8.0 0.00 0.00 0.00 64 1008.6
20260506000017 18 190 3.2 4.8 0.00 0.00 0.00 63 1008.3
20260505235514 18 227 9.7 14.5 0.00 0.00 0.00 63 1008.2
20260505235010 18 111 12.9 16.1 0.00 0.00 0.00 63 1008.2
20260505234508 18 228 4.8 8.0 0.00 0.00 0.00 64 1008.1
20260505234004 18 211 4.8 9.7 0.00 0.00 0.00 63 1008.2
20260505233502 18 222 6.4 11.3 0.00 0.00 0.00 63 1008.1
20260505232959 18 253 4.8 4.8 0.00 0.00 0.00 62 1008.0
20260505232457 18 226 4.8 9.7 0.00 0.00 0.00 62 1007.9
20260505231954 19 220 4.8 11.3 0.00 0.00 0.00 62 1008.0
20260505231451 19 180 6.4 9.7 0.00 0.00 0.00 61 1007.9
20260505230949 19 174 4.8 4.8 0.00 0.00 0.00 62 1008.0
20260505230447 19 213 8.0 12.9 0.00 0.00 0.00 61 1007.8
20260505225943 20 217 6.4 8.0 0.00 0.00 0.00 61 1007.8
20260505225440 20 252 4.8 4.8 0.00 0.00 0.00 60 1007.7
20260505224936 20 190 9.7 11.3 0.00 0.00 0.00 60 1007.6
20260505224434 20 207 4.8 9.7 0.00 0.00 0.00 60 1007.5
20260505223931 20 222 1.6 3.2 0.00 0.00 0.00 61 1007.4
20260505223428 20 194 6.4 8.0 0.00 0.00 0.00 60 1007.8
20260505222924 20 185 4.8 9.7 0.00 0.00 0.00 59 1007.8
20260505222421 20 208 3.2 4.8 0.00 0.00 0.00 59 1007.8
20260505221916 20 91 4.8 8.0 0.00 0.00 0.00 58 1007.9
20260505221414 21 206 6.4 11.3 0.00 0.00 0.00 58 1007.9
20260505220911 21 231 1.6 3.2 0.00 0.00 0.00 59 1007.8
20260505220408 21 278 11.3 16.1 0.00 0.00 0.00 58 1007.8
20260505215905 21 277 4.8 8.0 0.00 0.00 0.00 58 1007.9
20260505215403 21 101 4.8 9.7 0.00 0.00 0.00 57 1007.8
20260505214901 21 342 8.0 9.7 0.00 0.00 0.00 57 1007.8
20260505214358 21 251 4.8 9.7 0.00 0.00 0.00 58 1007.5
20260505213855 21 231 4.8 9.7 0.00 0.00 0.00 56 1007.4
20260505213353 21 223 4.8 8.0 0.00 0.00 0.00 57 1007.6
20260505212849 21 179 3.2 4.8 0.00 0.00 0.00 57 1007.6
20260505212346 21 12 3.2 4.8 0.00 0.00 0.00 56 1007.4
20260505211842 21 240 8.0 9.7 0.00 0.00 0.00 56 1007.5
20260505211340 21 207 3.2 9.7 0.00 0.00 0.00 57 1007.5
20260505210836 21 235 4.8 9.7 0.00 0.00 0.00 56 1007.4
20260505210333 22 189 3.2 3.2 0.00 0.00 0.00 55 1007.4
20260505205830 22 286 8.0 12.9 0.00 0.00 0.00 55 1007.7
20260505205328 22 201 4.8 8.0 0.00 0.00 0.00 54 1007.5
20260505204824 22 228 3.2 3.2 0.00 0.00 0.00 54 1007.4
20260505204323 22 178 9.7 11.3 0.00 0.00 0.00 54 1007.4
20260505203820 23 168 14.5 17.7 0.00 0.00 0.00 52 1007.5
20260505203316 23 346 6.4 8.0 0.00 0.00 0.00 53 1007.5
20260505202813 23 132 6.4 8.0 0.00 0.00 0.00 54 1007.3
20260505202309 23 206 3.2 3.2 0.00 0.00 0.00 51 1007.5
20260505201806 23 203 6.4 9.7 0.00 0.00 0.00 51 1007.4
20260505201303 23 250 4.8 8.0 0.00 0.00 0.00 52 1007.6
20260505200801 23 212 4.8 8.0 0.00 0.00 0.00 52 1007.6
20260505200258 23 211 6.4 9.7 0.00 0.00 0.00 53 1007.7
20260505195753 23 151 6.4 9.7 0.00 0.00 0.00 52 1008.1
20260505195251 23 234 4.8 8.0 0.00 0.00 0.00 52 1007.8
20260505194748 25 129 6.4 9.7 0.00 0.00 0.00 50 1007.6
20260505194245 24 142 1.6 3.2 0.00 0.00 0.00 53 1007.7
20260505193740 24 193 14.5 20.9 0.00 0.00 0.00 51 1008.1